CZ-2D DEB, 44612

Orbit data source: Space-Track

CZ-2D DEB, 44612 is space debris in SSO originally from a launch on Mon, 09 Oct 2017 UTC launched from the Jiuquan Satellite Launch Center, China (JSC). Debris objects in space refer to the collection of defunct objects orbiting the Earth. Examples of debris include non-operational satellites, rocket bodies, and fragments generated from explosions, collisions, or faulty payload assembly.

Loading next visibility...
Identifier
44612, 2017-060E
Orbit
SSO
Last TLE update
16 hours ago
Origin
Manufacturer
Unknown
Mission
Spacecraft
Bus & Motor
Unknown
Mass
Unknown
Launch date (UTC)
2017-10-09 (8 years ago)
Launch vehicle
Unknown
Launch site
Jiuquan Satellite Launch Center, China (JSC)
Object type
Payload
Rocket body
Debris
Shape & HBR
Unknown
Radar Cross Section
Small (<0.1 m²)

Expand to show TLE details & history

TLE from 16 hours ago
0 CZ-2D DEB
1 44612U 17060E   25129.52403980  .00005137  00000-0  53421-3 0  9995
2 44612  97.5934 142.9027 0011274  11.5620 348.5855 14.90242920406686
Epoch: 2025-05-09T12:34Z
Definitive object data (Epoch: 2025-05-09T12:34:37.038Z)
Latitude
-0.00006°
Longitude
86.66943°
Altitude
592.512 km
Speed
7.568 km/s
True Right ascension
09h 31m 36s
True Declination
0° 00' 00"
Sunlit
Object was in daylight at TLE epoch
Visualization TLE readout
Latitude
7.58411°
Longitude
86.30453°
Altitude
591.672 km
Speed
7.569 km/s
Apparent Right ascension
06h 30m 54s
Apparent Declination
-30° 08' 07"
Sunlit
Object is in daylight
Visualization observer readout
Local Sidereal Time
12:56:01
Azimuth
249.328° W
Elevation
-23.247°
Doppler factor
1
Orbital elements
Apogee altitude
602.052 km
Perigee altitude
586.331 km
Semi-major axis
6,972.328 km
Eccentricity
0.0011274
Inclination
97.5934°
RAAN
142.9027°
Arg. of periapsis
11.562°
True anomaly
348.5599°
Mean anomaly
348.5855°
Eccentric anomaly
348.5727°
Mean motion
3.728 °/min
BSTAR
0.00053421
Orbital period
96.57 mins
Loading maneuver chart data...
Loading SW <> Apogee altitude chart data...
Loading historical data...
Loading historical data...
Loading historical data...
Loading historical data...
Loading historical data...
Loading historical data...
Loading historical data...
Other satellites on launch #60 in the year 2017 (2017-10-09 UTC)

CZ-2D DEB Visibility forecast

Observer location: undefined°, undefined°

Span
Click to sort rows by Start time (UTC) header in descending order
Start Az.
Max El. time (UTC)
Max El. Az.
Max El.
End time (UTC)
End Az.
7 mins2025-05-10 13:19:32.122Z30.143° NE2025-05-10 13:22:32.122Z94.931° ESE35.485°2025-05-10 13:26:32.122Z172.164° S
5 mins2025-05-11 00:11:32.122Z107.491° ESE2025-05-11 00:13:32.122Z59.819° ENE25.035°2025-05-11 00:16:32.122Z12.282° NNE
4 mins2025-05-11 01:47:32.122Z239.874° WSW2025-05-11 01:48:32.122Z259.707° W20.15°2025-05-11 01:51:32.122Z311.807° NW
|